• Em Portugal
  • Lista de países
  • Para 7 dias
  • Temperatura da água
  • Mapas de satélite
  • Mapa do tempo
  • Widgets de tempo
  • user-avatar
    Iniciar Sessão

    Previsão horária em Patoka

    Hoje, 24 Setembro, Segunda-feira

    Tempo Temperatura Precipitação Vento Pressão Humidade
    00:00 +8°C° 0.9 mm 7 m/s 743 mmHg 90%
    01:00 +6°C° 0 mm 7 m/s 745 mmHg 86%
    02:00 +6°C° 0.1 mm 7 m/s 746 mmHg 86%
    03:00 +6°C° 0.1 mm 7 m/s 748 mmHg 86%
    04:00 +6°C° 0.1 mm 8 m/s 749 mmHg 86%
    05:00 +6°C° 0 mm 8 m/s 749 mmHg 85%
    06:00 +6°C° 0 mm 8 m/s 750 mmHg 84%
    07:00 +6°C° 0 mm 8 m/s 751 mmHg 83%
    08:00 +7°C° 0.1 mm 8 m/s 751 mmHg 80%
    09:00 +7°C° 0.1 mm 8 m/s 752 mmHg 76%
    10:00 +9°C° 0.1 mm 8 m/s 753 mmHg 73%
    11:00 +9°C° 0.3 mm 8 m/s 753 mmHg 68%
    12:00 +10°C° 0.3 mm 9 m/s 753 mmHg 63%
    13:00 +11°C° 0.3 mm 9 m/s 754 mmHg 58%
    14:00 +11°C° 0.2 mm 8 m/s 754 mmHg 57%
    15:00 +11°C° 0.2 mm 8 m/s 754 mmHg 56%
    16:00 +11°C° 0.2 mm 7 m/s 754 mmHg 54%
    17:00 +10°C° 0.1 mm 7 m/s 755 mmHg 59%
    18:00 +9°C° 0.1 mm 6 m/s 756 mmHg 63%
    19:00 +7°C° 0.1 mm 5 m/s 756 mmHg 68%
    20:00 +7°C° 0.1 mm 5 m/s 757 mmHg 70%
    21:00 +7°C° 0.1 mm 4 m/s 757 mmHg 72%
    22:00 +6°C° 0.1 mm 4 m/s 758 mmHg 74%
    23:00 +6°C° 0 mm 4 m/s 758 mmHg 75%

    Amanhã, 25 Setembro, Terça-feira

    Tempo Temperatura Precipitação Vento Pressão Humidade
    00:00 +5°C° 0 mm 5 m/s 759 mmHg 76%
    01:00 +5°C° 0 mm 5 m/s 759 mmHg 77%
    02:00 +5°C° 0 mm 5 m/s 759 mmHg 78%
    03:00 +3°C° 0 mm 5 m/s 760 mmHg 79%
    04:00 +4°C° 0 mm 4 m/s 760 mmHg 80%
    05:00 +4°C° 0 mm 4 m/s 761 mmHg 80%
    06:00 +4°C° 0 mm 4 m/s 761 mmHg 80%
    07:00 +4°C° 0 mm 4 m/s 762 mmHg 80%
    08:00 +6°C° 0 mm 4 m/s 763 mmHg 74%
    09:00 +8°C° 0 mm 4 m/s 763 mmHg 68%
    10:00 +10°C° 0 mm 4 m/s 763 mmHg 62%
    11:00 +11°C° 0.1 mm 4 m/s 764 mmHg 58%
    12:00 +12°C° 0.1 mm 4 m/s 764 mmHg 53%
    13:00 +13°C° 0.1 mm 3 m/s 764 mmHg 48%
    14:00 +13°C° 0 mm 3 m/s 764 mmHg 48%
    15:00 +13°C° 0 mm 3 m/s 764 mmHg 48%
    16:00 +13°C° 0 mm 3 m/s 764 mmHg 49%
    17:00 +12°C° 0 mm 2 m/s 764 mmHg 54%
    18:00 +10°C° 0 mm 2 m/s 764 mmHg 59%
    19:00 +10°C° 0 mm 1 m/s 765 mmHg 64%
    20:00 +9°C° 0 mm 1 m/s 765 mmHg 66%
    21:00 +7°C° 0 mm 2 m/s 765 mmHg 67%
    22:00 +7°C° 0 mm 2 m/s 765 mmHg 69%
    23:00 +7°C° 0 mm 2 m/s 765 mmHg 69%

    Depois de amanhã, 26 Setembro, Quarta-feira

    Tempo Temperatura Precipitação Vento Pressão Humidade
    00:00 +6°C° 0 mm 2 m/s 765 mmHg 70%
    01:00 +6°C° 0 mm 2 m/s 765 mmHg 71%
    02:00 +6°C° 0 mm 2 m/s 765 mmHg 71%
    03:00 +5°C° 0 mm 2 m/s 765 mmHg 72%
    04:00 +5°C° 0 mm 2 m/s 765 mmHg 72%
    05:00 +6°C° 0 mm 2 m/s 765 mmHg 71%
    06:00 +6°C° 0 mm 2 m/s 765 mmHg 70%
    07:00 +6°C° 0 mm 2 m/s 764 mmHg 69%
    08:00 +8°C° 0 mm 3 m/s 764 mmHg 62%
    09:00 +11°C° 0 mm 3 m/s 764 mmHg 54%
    10:00 +13°C° 0 mm 4 m/s 764 mmHg 46%
    11:00 +14°C° 0 mm 4 m/s 763 mmHg 44%
    12:00 +14°C° 0 mm 4 m/s 763 mmHg 41%
    13:00 +15°C° 0 mm 4 m/s 762 mmHg 39%
    14:00 +15°C° 0 mm 4 m/s 762 mmHg 40%
    15:00 +15°C° 0 mm 4 m/s 761 mmHg 42%
    16:00 +15°C° 0 mm 4 m/s 760 mmHg 43%
    17:00 +14°C° 0 mm 3 m/s 760 mmHg 47%
    18:00 +13°C° 0 mm 3 m/s 760 mmHg 50%
    19:00 +11°C° 0 mm 3 m/s 760 mmHg 54%
    20:00 +11°C° 0 mm 3 m/s 760 mmHg 53%
    21:00 +11°C° 0 mm 4 m/s 760 mmHg 52%
    22:00 +11°C° 0 mm 4 m/s 760 mmHg 52%
    23:00 +11°C° 0 mm 4 m/s 760 mmHg 52%

    27 Setembro, Quinta-feira

    Tempo Temperatura Precipitação Vento Pressão Humidade
    00:00 +11°C° 0 mm 4 m/s 760 mmHg 53%
    01:00 +11°C° 0 mm 4 m/s 760 mmHg 53%
    02:00 +11°C° 0 mm 4 m/s 759 mmHg 53%
    03:00 +11°C° 0 mm 4 m/s 759 mmHg 54%
    04:00 +10°C° 0 mm 5 m/s 759 mmHg 54%
    05:00 +11°C° 0 mm 4 m/s 759 mmHg 55%
    06:00 +12°C° 0 mm 4 m/s 759 mmHg 56%
    07:00 +12°C° 0 mm 4 m/s 759 mmHg 58%
    08:00 +13°C° 0 mm 5 m/s 759 mmHg 57%
    09:00 +15°C° 0 mm 5 m/s 759 mmHg 56%
    10:00 +17°C° 0 mm 5 m/s 759 mmHg 54%
    11:00 +19°C° 0 mm 5 m/s 759 mmHg 54%
    12:00 +20°C° 0 mm 5 m/s 759 mmHg 54%
    13:00 +22°C° 0 mm 5 m/s 758 mmHg 54%
    14:00 +22°C° 0 mm 5 m/s 758 mmHg 56%
    15:00 +22°C° 0 mm 4 m/s 758 mmHg 57%
    16:00 +21°C° 0 mm 4 m/s 757 mmHg 59%
    17:00 +20°C° 0 mm 3 m/s 757 mmHg 65%
    18:00 +18°C° 0 mm 3 m/s 757 mmHg 72%
    19:00 +17°C° 0 mm 2 m/s 757 mmHg 79%
    20:00 +16°C° 0 mm 2 m/s 756 mmHg 80%
    21:00 +16°C° 0 mm 2 m/s 756 mmHg 81%
    22:00 +16°C° 0 mm 2 m/s 756 mmHg 82%
    23:00 +15°C° 0 mm 2 m/s 755 mmHg 81%

    28 Setembro, Sexta-feira

    Tempo Temperatura Precipitação Vento Pressão Humidade
    00:00 +15°C° 0 mm 2 m/s 755 mmHg 80%
    01:00 +14°C° 0 mm 3 m/s 754 mmHg 79%
    02:00 +14°C° 0 mm 3 m/s 754 mmHg 78%
    03:00 +14°C° 0 mm 3 m/s 753 mmHg 77%
    04:00 +13°C° 0 mm 3 m/s 753 mmHg 75%
    05:00 +13°C° 0 mm 3 m/s 752 mmHg 74%
    06:00 +14°C° 0 mm 3 m/s 752 mmHg 72%
    07:00 +14°C° 0 mm 3 m/s 752 mmHg 70%
    08:00 +15°C° 0 mm 4 m/s 752 mmHg 62%
    09:00 +18°C° 0 mm 4 m/s 752 mmHg 55%
    10:00 +19°C° 0 mm 4 m/s 751 mmHg 47%
    11:00 +20°C° 0 mm 4 m/s 751 mmHg 45%
    12:00 +21°C° 0 mm 4 m/s 751 mmHg 43%
    13:00 +21°C° 0 mm 5 m/s 751 mmHg 41%
    14:00 +21°C° 0 mm 4 m/s 751 mmHg 44%
    15:00 +20°C° 0 mm 4 m/s 751 mmHg 47%
    16:00 +20°C° 0 mm 4 m/s 751 mmHg 50%
    17:00 +18°C° 0 mm 4 m/s 751 mmHg 57%
    18:00 +15°C° 0 mm 4 m/s 751 mmHg 64%
    19:00 +14°C° 0 mm 4 m/s 752 mmHg 71%
    20:00 +13°C° 0 mm 4 m/s 752 mmHg 68%
    21:00 +13°C° 0 mm 4 m/s 753 mmHg 65%
    22:00 +12°C° 0 mm 4 m/s 753 mmHg 62%
    23:00 +11°C° 0 mm 4 m/s 754 mmHg 64%

    29 Setembro, Sábado

    Tempo Temperatura Precipitação Vento Pressão Humidade
    00:00 +10°C° 0 mm 3 m/s 754 mmHg 67%
    01:00 +9°C° 0 mm 3 m/s 754 mmHg 69%
    02:00 +8°C° 0 mm 3 m/s 754 mmHg 72%
    03:00 +8°C° 0 mm 3 m/s 755 mmHg 76%
    04:00 +7°C° 0 mm 3 m/s 755 mmHg 79%
    05:00 +8°C° 0 mm 3 m/s 756 mmHg 79%
    06:00 +8°C° 0 mm 3 m/s 756 mmHg 80%
    07:00 +8°C° 0 mm 3 m/s 756 mmHg 80%
    08:00 +9°C° 0 mm 3 m/s 757 mmHg 74%
    09:00 +11°C° 0 mm 3 m/s 757 mmHg 68%
    10:00 +12°C° 0 mm 3 m/s 758 mmHg 62%
    11:00 +13°C° 0.1 mm 3 m/s 758 mmHg 57%
    12:00 +14°C° 0.1 mm 3 m/s 758 mmHg 53%
    13:00 +16°C° 0.1 mm 3 m/s 758 mmHg 49%
    14:00 +14°C° 0 mm 3 m/s 758 mmHg 48%
    15:00 +14°C° 0 mm 3 m/s 758 mmHg 48%
    16:00 +14°C° 0 mm 3 m/s 758 mmHg 48%
    17:00 +13°C° 0 mm 3 m/s 758 mmHg 53%
    18:00 +12°C° 0 mm 2 m/s 759 mmHg 58%
    19:00 +9°C° 0 mm 2 m/s 759 mmHg 63%
    20:00 +9°C° 0 mm 2 m/s 759 mmHg 65%
    21:00 +8°C° 0 mm 2 m/s 759 mmHg 66%
    22:00 +8°C° 0 mm 2 m/s 760 mmHg 67%
    23:00 +8°C° 0 mm 2 m/s 760 mmHg 68%
    Mostrar mais